Weather History for Louisville Bowman, KY

Change the Weather History Date:

Wednesday, December 7, 2011

  Actual Average Record
Temperature  
Mean Temperature 36 °F 39 °F  
Max Temperature 41 °F 47 °F 72 °F (1951)
Min Temperature 31 °F 31 °F 5 °F (1977)
Degree Days  
Heating Degree Days 29 26  
Month to date heating degree days 145 175  
Since 1 July heating degree days 840 979  
Cooling Degree Days 0 0  
Month to date cooling degree days 0 0  
Year to date cooling degree days 1725 1444  
Moisture  
Dew Point 30 °F    
Average Humidity 73    
Maximum Humidity 92    
Minimum Humidity 54    
Precipitation  
Precipitation T in 0.14 in 1.57 in (2012)
Month to date precipitation 2.76 0.95  
Year to date precipitation 67.41 42.48  
Sea Level Pressure  
Sea Level Pressure 30.08 in    
Wind  
Wind Speed 9 mph (NNW)    
Max Wind Speed 18 mph    
Max Gust Speed 25 mph    
Visibility 9 miles    
Events Snow    
T = Trace of Precipitation, MM = Missing Value Source: NWS Daily Summary

Daily Weather History Graph

Daily Weather History Graph

Search for Another Location

Airport:

Trip Planner

Search our weather history database for the weather conditions in past years. The results will help you decide how hot, cold, wet, or windy it might be!

Date:

Astronomy

Dec. 07, 2011 Rise Set
Actual Time 7:45 AM EST 5:22 PM EST
Civil Twilight 7:16 AM EST 5:51 PM EST
Nautical Twilight 6:43 AM EST 6:24 PM EST
Astronomical Twilight 6:11 AM EST 6:56 PM EST
Moon 3:22 PM EST (12/7) 5:01 AM EST (12/7)
Length of Visible Light 10h 35m
Length of Day
9h 36m
Waxing Gibbous, 92% of the Moon is Illuminated
Dec 7
Waxing Gibbous
Dec 10
Full
Dec 17
Last Quarter
Dec 24
New
Jan 1
First Quarter

Hourly Weather History & Observations

Time (EST) Temp. Windchill Dew Point Humidity Pressure Visibility Wind Dir Wind Speed Gust Speed Precip Events Conditions
12:03 AM 37.4 °F 31.4 °F 35.6 °F 93% 30.08 in 10.0 mi NNW 8.1 mph - N/A   Overcast
12:53 AM 37.0 °F 31.0 °F 35.1 °F 93% 30.09 in 10.0 mi NW 8.1 mph - N/A   Overcast
1:43 AM 35.6 °F 30.7 °F 33.8 °F 93% 30.05 in 10.0 mi North 5.8 mph - N/A   Overcast
1:53 AM 36.0 °F 29.6 °F 34.0 °F 93% 30.06 in 10.0 mi NNW 8.1 mph - N/A   Overcast
2:53 AM 35.6 °F 29.2 °F 33.8 °F 93% 30.04 in 10.0 mi North 8.1 mph - N/A   Overcast
3:07 AM 35.6 °F 29.2 °F 32.0 °F 87% 30.05 in 10.0 mi NNW 8.1 mph - N/A   Overcast
3:53 AM 36.0 °F 32.1 °F 33.1 °F 89% 30.05 in 10.0 mi North 4.6 mph - N/A   Overcast
4:08 AM 35.6 °F 29.2 °F 33.8 °F 93% 30.03 in 10.0 mi North 8.1 mph - N/A   Overcast
4:53 AM 36.0 °F 29.6 °F 33.1 °F 89% 30.01 in 10.0 mi North 8.1 mph - N/A   Overcast
5:53 AM 36.0 °F 33.3 °F 32.0 °F 86% 30.03 in 10.0 mi NNE 3.5 mph - N/A   Overcast
6:32 AM 35.6 °F 30.7 °F 33.8 °F 93% 30.02 in 10.0 mi NNE 5.8 mph - N/A   Overcast
6:53 AM 36.0 °F 29.6 °F 32.0 °F 86% 30.01 in 10.0 mi NNE 8.1 mph - N/A   Overcast
7:53 AM 36.0 °F 30.3 °F 32.0 °F 86% 30.03 in 10.0 mi North 6.9 mph - N/A   Overcast
8:53 AM 35.6 °F 28.6 °F 33.8 °F 93% 30.03 in 6.0 mi NNW 9.2 mph - N/A   Overcast
9:41 AM 33.8 °F 25.8 °F 30.2 °F 87% 30.05 in 2.0 mi NNW 10.4 mph - 0.00 in Snow Light Snow
9:53 AM 35.1 °F 28.6 °F 30.9 °F 85% 30.06 in 7.0 mi NNW 8.1 mph - 0.00 in Snow Light Snow
10:53 AM 37.0 °F 28.5 °F 27.0 °F 67% 30.06 in 7.0 mi North 13.8 mph 21.9 mph 0.00 in   Overcast
11:00 AM 37.4 °F 29.8 °F 26.6 °F 65% 30.05 in 10.0 mi North 11.5 mph 21.9 mph N/A   Overcast
11:53 AM 37.9 °F 29.6 °F 27.0 °F 65% 30.05 in 10.0 mi North 13.8 mph 20.7 mph N/A   Overcast
12:53 PM 39.2 °F 32.0 °F 26.6 °F 61% 30.03 in 10.0 mi North 11.5 mph 20.7 mph N/A   Overcast
1:53 PM 39.0 °F 30.3 °F 26.1 °F 60% 30.03 in 10.0 mi NNW 16.1 mph 19.6 mph N/A   Overcast
2:53 PM 39.9 °F 32.1 °F 26.1 °F 58% 30.04 in 10.0 mi NNW 13.8 mph 19.6 mph N/A   Overcast
3:53 PM 39.0 °F 32.8 °F 25.0 °F 57% 30.08 in 10.0 mi NNW 9.2 mph - N/A   Overcast
4:53 PM 39.0 °F 31.8 °F 25.0 °F 57% 30.09 in 10.0 mi WNW 11.5 mph - N/A   Overcast
5:53 PM 37.9 °F 30.5 °F 24.1 °F 57% 30.11 in 10.0 mi WNW 11.5 mph 18.4 mph N/A   Overcast
6:53 PM 37.0 °F 27.7 °F 26.1 °F 65% 30.14 in 10.0 mi NW 16.1 mph - N/A   Mostly Cloudy
7:53 PM 33.8 °F 29.6 °F 24.8 °F 70% 30.16 in 10.0 mi WNW 4.6 mph - N/A   Clear
8:53 PM 33.1 °F 30.0 °F 25.0 °F 72% 30.19 in 10.0 mi WSW 3.5 mph - N/A   Clear
9:53 PM 30.9 °F 26.2 °F 25.0 °F 79% 30.20 in 10.0 mi West 4.6 mph - N/A   Clear
10:53 PM 30.9 °F 25.2 °F 26.1 °F 82% 30.22 in 10.0 mi WSW 5.8 mph - N/A   Clear
11:53 PM 30.9 °F 24.3 °F 26.1 °F 82% 30.25 in 10.0 mi WSW 6.9 mph - N/A   Clear